| time (UTC) | temp F | wind direction | speed MPH | gust MPH | rain 1hr in | rain 24hr in | rain mn in | humidity % | barometer mb |
| 20260507151204 | 94 | 0.0 | 0.0 | 0.00 | 0.00 | 0.00 | 45 | 1005.3 | |
| 20260507150159 | 94 | 0.0 | 0.0 | 0.00 | 0.00 | 0.00 | 45 | 1005.3 | |
| 20260507145155 | 94 | 0.0 | 0.0 | 0.00 | 0.00 | 0.00 | 45 | 1005.3 | |
| 20260507144151 | 93 | 0.0 | 0.0 | 0.00 | 0.00 | 0.00 | 45 | 1005.2 | |
| 20260507142143 | 94 | 0.0 | 0.0 | 0.00 | 0.00 | 0.00 | 44 | 1005.2 | |
| 20260507140134 | 93 | 0.0 | 0.0 | 0.00 | 0.00 | 0.00 | 44 | 1005.2 | |
| 20260507134125 | 93 | 0.0 | 0.0 | 0.00 | 0.00 | 0.00 | 44 | 1005.1 | |
| 20260507133121 | 93 | 0.0 | 0.0 | 0.00 | 0.00 | 0.00 | 44 | 1005.0 | |
| 20260507132118 | 93 | 0.0 | 0.0 | 0.00 | 0.00 | 0.00 | 44 | 1004.7 | |
| 20260507131113 | 93 | 0.0 | 0.0 | 0.00 | 0.00 | 0.00 | 44 | 1004.6 | |
| 20260507130110 | 93 | 0.0 | 0.0 | 0.00 | 0.00 | 0.00 | 44 | 1004.7 | |
| 20260507125106 | 93 | 0.0 | 0.0 | 0.00 | 0.00 | 0.00 | 44 | 1004.6 | |
| 20260507124101 | 93 | 0.0 | 0.0 | 0.00 | 0.00 | 0.00 | 44 | 1004.6 | |
| 20260507123057 | 93 | 0.0 | 0.0 | 0.00 | 0.00 | 0.00 | 44 | 1004.8 | |
| 20260507122053 | 93 | 0.0 | 0.0 | 0.00 | 0.00 | 0.00 | 44 | 1004.7 | |
| 20260507121049 | 92 | 0.0 | 0.0 | 0.00 | 0.00 | 0.00 | 44 | 1004.5 | |
| 20260507120044 | 92 | 0.0 | 0.0 | 0.00 | 0.00 | 0.00 | 44 | 1004.3 | |
| 20260507115040 | 92 | 0.0 | 0.0 | 0.00 | 0.00 | 0.00 | 43 | 1004.3 | |
| 20260507114037 | 92 | 0.0 | 0.0 | 0.00 | 0.00 | 0.00 | 43 | 1004.2 | |
| 20260507113033 | 92 | 0.0 | 0.0 | 0.00 | 0.00 | 0.00 | 44 | 1004.0 | |
| 20260507110020 | 92 | 0.0 | 0.0 | 0.00 | 0.00 | 0.00 | 45 | 1003.8 | |
| 20260507105015 | 92 | 0.0 | 0.0 | 0.00 | 0.00 | 0.00 | 45 | 1003.6 | |
| 20260507104012 | 92 | 0.0 | 0.0 | 0.00 | 0.00 | 0.00 | 46 | 1003.4 | |
| 20260507103007 | 92 | 0.0 | 0.0 | 0.00 | 0.00 | 0.00 | 46 | 1003.3 | |
| 20260507102004 | 92 | 0.0 | 0.0 | 0.00 | 0.00 | 0.00 | 46 | 1003.4 | |
| 20260507100959 | 92 | 0.0 | 0.0 | 0.00 | 0.00 | 0.00 | 46 | 1003.5 | |
| 20260507095955 | 92 | 0.0 | 0.0 | 0.00 | 0.00 | 0.00 | 46 | 1003.4 | |
| 20260507094951 | 92 | 0.0 | 0.0 | 0.00 | 0.00 | 0.00 | 45 | 1003.3 | |
| 20260507093947 | 92 | 0.0 | 0.0 | 0.00 | 0.00 | 0.00 | 45 | 1003.2 | |
| 20260507092943 | 92 | 0.0 | 0.0 | 0.00 | 0.00 | 0.00 | 45 | 1003.2 | |
| 20260507091938 | 92 | 0.0 | 0.0 | 0.00 | 0.00 | 0.00 | 45 | 1003.2 | |
| 20260507090935 | 92 | 0.0 | 0.0 | 0.00 | 0.00 | 0.00 | 45 | 1003.2 | |
| 20260507085930 | 92 | 0.0 | 0.0 | 0.00 | 0.00 | 0.00 | 45 | 1003.2 | |
| 20260507084926 | 92 | 0.0 | 0.0 | 0.00 | 0.00 | 0.00 | 45 | 1003.3 | |
| 20260507081914 | 92 | 0.0 | 0.0 | 0.00 | 0.00 | 0.00 | 46 | 1003.5 | |
| 20260507075906 | 92 | 0.0 | 0.0 | 0.00 | 0.00 | 0.00 | 46 | 1003.5 | |
| 20260507074901 | 92 | 0.0 | 0.0 | 0.00 | 0.00 | 0.00 | 46 | 1003.7 | |
| 20260507073858 | 92 | 0.0 | 0.0 | 0.00 | 0.00 | 0.00 | 46 | 1003.7 | |
| 20260507072854 | 92 | 0.0 | 0.0 | 0.00 | 0.00 | 0.00 | 46 | 1003.9 | |
| 20260507071850 | 92 | 0.0 | 0.0 | 0.00 | 0.00 | 0.00 | 46 | 1003.9 | |
| 20260507070845 | 92 | 0.0 | 0.0 | 0.00 | 0.00 | 0.00 | 46 | 1004.1 | |
| 20260507065841 | 92 | 0.0 | 0.0 | 0.00 | 0.00 | 0.00 | 46 | 1004.3 | |
| 20260507064837 | 91 | 0.0 | 0.0 | 0.00 | 0.00 | 0.00 | 46 | 1004.3 | |
| 20260507063833 | 91 | 0.0 | 0.0 | 0.00 | 0.00 | 0.00 | 46 | 1004.5 | |
| 20260507062829 | 91 | 0.0 | 0.0 | 0.00 | 0.00 | 0.00 | 46 | 1004.5 | |
| 20260507061824 | 91 | 0.0 | 0.0 | 0.00 | 0.00 | 0.00 | 46 | 1004.6 | |
| 20260507060820 | 91 | 0.0 | 0.0 | 0.00 | 0.00 | 0.00 | 46 | 1004.6 | |
| 20260507055816 | 91 | 0.0 | 0.0 | 0.00 | 0.00 | 0.00 | 47 | 1004.7 | |
| 20260507054813 | 91 | 0.0 | 0.0 | 0.00 | 0.00 | 0.00 | 47 | 1004.8 | |
| 20260507053808 | 91 | 0.0 | 0.0 | 0.00 | 0.00 | 0.00 | 47 | 1004.9 | |
| 20260507052804 | 91 | 0.0 | 0.0 | 0.00 | 0.00 | 0.00 | 47 | 1004.9 | |
| 20260507051800 | 91 | 0.0 | 0.0 | 0.00 | 0.00 | 0.00 | 47 | 1005.0 | |
| 20260507050756 | 91 | 0.0 | 0.0 | 0.00 | 0.00 | 0.00 | 47 | 1005.1 | |
| 20260507045752 | 90 | 0.0 | 0.0 | 0.00 | 0.00 | 0.00 | 46 | 1004.9 | |
| 20260507044747 | 90 | 0.0 | 0.0 | 0.00 | 0.00 | 0.00 | 46 | 1005.0 | |
| 20260507043744 | 90 | 0.0 | 0.0 | 0.00 | 0.00 | 0.00 | 46 | 1005.1 | |
| 20260507041735 | 90 | 0.0 | 0.0 | 0.00 | 0.00 | 0.00 | 44 | 1005.0 | |
| 20260507040731 | 90 | 0.0 | 0.0 | 0.00 | 0.00 | 0.00 | 44 | 1004.9 | |
| 20260507035726 | 89 | 0.0 | 0.0 | 0.00 | 0.00 | 0.00 | 43 | 1004.8 | |
| 20260507034723 | 89 | 0.0 | 0.0 | 0.00 | 0.00 | 0.00 | 43 | 1004.8 | |
| 20260507033719 | 89 | 0.0 | 0.0 | 0.00 | 0.00 | 0.00 | 44 | 1004.6 | |
| 20260507032715 | 89 | 0.0 | 0.0 | 0.00 | 0.00 | 0.00 | 44 | 1004.6 | |
| 20260507031711 | 88 | 0.0 | 0.0 | 0.00 | 0.00 | 0.00 | 43 | 1004.5 | |
| 20260507030706 | 88 | 0.0 | 0.0 | 0.00 | 0.00 | 0.00 | 43 | 1004.4 | |
| 20260507025702 | 87 | 0.0 | 0.0 | 0.00 | 0.00 | 0.00 | 42 | 1004.3 | |
| 20260507024658 | 87 | 0.0 | 0.0 | 0.00 | 0.00 | 0.00 | 38 | 1004.2 | |
| 20260507022650 | 86 | 0.0 | 0.0 | 0.00 | 0.00 | 0.00 | 34 | 1004.1 | |
| 20260507021645 | 87 | 0.0 | 0.0 | 0.00 | 0.00 | 0.00 | 38 | 1004.1 | |
| 20260507020642 | 87 | 0.0 | 0.0 | 0.00 | 0.00 | 0.00 | 35 | 1004.0 | |
| 20260507015638 | 87 | 0.0 | 0.0 | 0.00 | 0.00 | 0.00 | 35 | 1003.9 | |
| 20260507014634 | 87 | 0.0 | 0.0 | 0.00 | 0.00 | 0.00 | 34 | 1003.9 | |
| 20260507013629 | 87 | 0.0 | 0.0 | 0.00 | 0.00 | 0.00 | 35 | 1003.7 | |
| 20260507012625 | 87 | 0.0 | 0.0 | 0.00 | 0.00 | 0.00 | 34 | 1003.7 | |
| 20260507011621 | 88 | 0.0 | 0.0 | 0.00 | 0.00 | 0.00 | 34 | 1003.7 | |
| 20260507010617 | 88 | 0.0 | 0.0 | 0.00 | 0.00 | 0.00 | 35 | 1003.6 | |
| 20260507005612 | 88 | 0.0 | 0.0 | 0.00 | 0.00 | 0.00 | 35 | 1003.5 | |
| 20260507004608 | 88 | 0.0 | 0.0 | 0.00 | 0.00 | 0.00 | 34 | 1003.4 | |
| 20260507003604 | 89 | 0.0 | 0.0 | 0.00 | 0.00 | 0.00 | 33 | 1003.3 | |
| 20260507002601 | 89 | 0.0 | 0.0 | 0.00 | 0.00 | 0.00 | 31 | 1003.3 | |
| 20260507001556 | 89 | 0.0 | 0.0 | 0.00 | 0.00 | 0.00 | 29 | 1003.3 | |
| 20260507000552 | 90 | 0.0 | 0.0 | 0.00 | 0.00 | 0.00 | 29 | 1003.4 | |
| 20260506232536 | 93 | 0.0 | 0.0 | 0.00 | 0.00 | 0.00 | 36 | 1003.2 | |
| 20260506231531 | 93 | 0.0 | 0.0 | 0.00 | 0.00 | 0.00 | 34 | 1003.1 | |
| 20260506230528 | 94 | 0.0 | 0.0 | 0.00 | 0.00 | 0.00 | 36 | 1002.9 | |
| 20260506225523 | 95 | 0.0 | 0.0 | 0.00 | 0.00 | 0.00 | 47 | 1002.7 | |
| 20260506223515 | 95 | 0.0 | 0.0 | 0.00 | 0.00 | 0.00 | 47 | 1002.6 | |
| 20260506222511 | 95 | 0.0 | 0.0 | 0.00 | 0.00 | 0.00 | 46 | 1002.6 | |
| 20260506221506 | 95 | 0.0 | 0.0 | 0.00 | 0.00 | 0.00 | 46 | 1002.5 | |
| 20260506220503 | 95 | 0.0 | 0.0 | 0.00 | 0.00 | 0.00 | 46 | 1002.4 | |
| 20260506215458 | 95 | 0.0 | 0.0 | 0.00 | 0.00 | 0.00 | 47 | 1002.3 | |
| 20260506214455 | 95 | 0.0 | 0.0 | 0.00 | 0.00 | 0.00 | 47 | 1002.2 | |
| 20260506213451 | 94 | 0.0 | 0.0 | 0.00 | 0.00 | 0.00 | 47 | 1002.3 | |
| 20260506212446 | 95 | 0.0 | 0.0 | 0.00 | 0.00 | 0.00 | 46 | 1002.2 | |
| 20260506211442 | 94 | 0.0 | 0.0 | 0.00 | 0.00 | 0.00 | 46 | 1002.2 | |
| 20260506210438 | 94 | 0.0 | 0.0 | 0.00 | 0.00 | 0.00 | 46 | 1002.1 | |
| 20260506204429 | 94 | 0.0 | 0.0 | 0.00 | 0.00 | 0.00 | 47 | 1002.6 | |
| 20260506203425 | 94 | 0.0 | 0.0 | 0.00 | 0.00 | 0.00 | 46 | 1002.6 | |
| 20260506202421 | 94 | 0.0 | 0.0 | 0.00 | 0.00 | 0.00 | 46 | 1002.6 | |
| 20260506201417 | 94 | 0.0 | 0.0 | 0.00 | 0.00 | 0.00 | 45 | 1002.7 | |
| 20260506200413 | 94 | 0.0 | 0.0 | 0.00 | 0.00 | 0.00 | 46 | 1002.7 | |
| 20260506195408 | 94 | 0.0 | 0.0 | 0.00 | 0.00 | 0.00 | 47 | 1002.7 | |
| 20260506194404 | 94 | 0.0 | 0.0 | 0.00 | 0.00 | 0.00 | 48 | 1002.7 | |
| 20260506193400 | 94 | 0.0 | 0.0 | 0.00 | 0.00 | 0.00 | 48 | 1002.7 | |
| 20260506192356 | 94 | 0.0 | 0.0 | 0.00 | 0.00 | 0.00 | 49 | 1002.9 | |
| 20260506185344 | 94 | 0.0 | 0.0 | 0.00 | 0.00 | 0.00 | 49 | 1003.1 | |
| 20260506184339 | 94 | 0.0 | 0.0 | 0.00 | 0.00 | 0.00 | 49 | 1003.3 | |
| 20260506183335 | 94 | 0.0 | 0.0 | 0.00 | 0.00 | 0.00 | 49 | 1003.4 | |
| 20260506182330 | 94 | 0.0 | 0.0 | 0.00 | 0.00 | 0.00 | 49 | 1003.7 | |
| 20260506181326 | 94 | 0.0 | 0.0 | 0.00 | 0.00 | 0.00 | 48 | 1003.9 | |
| 20260506180323 | 94 | 0.0 | 0.0 | 0.00 | 0.00 | 0.00 | 49 | 1003.9 | |
| 20260506175319 | 94 | 0.0 | 0.0 | 0.00 | 0.00 | 0.00 | 49 | 1004.0 | |
| 20260506174315 | 94 | 0.0 | 0.0 | 0.00 | 0.00 | 0.00 | 50 | 1004.1 | |
| 20260506173311 | 94 | 0.0 | 0.0 | 0.00 | 0.00 | 0.00 | 49 | 1004.3 | |
| 20260506172307 | 94 | 0.0 | 0.0 | 0.00 | 0.00 | 0.00 | 49 | 1004.4 | |
| 20260506171302 | 94 | 0.0 | 0.0 | 0.00 | 0.00 | 0.00 | 49 | 1004.5 | |
| 20260506170258 | 94 | 0.0 | 0.0 | 0.00 | 0.00 | 0.00 | 50 | 1004.7 | |
| 20260506165254 | 94 | 0.0 | 0.0 | 0.00 | 0.00 | 0.00 | 49 | 1004.8 | |
| 20260506164250 | 94 | 0.0 | 0.0 | 0.00 | 0.00 | 0.00 | 49 | 1004.9 | |
| 20260506163245 | 94 | 0.0 | 0.0 | 0.00 | 0.00 | 0.00 | 48 | 1005.0 | |
| 20260506162242 | 93 | 0.0 | 0.0 | 0.00 | 0.00 | 0.00 | 49 | 1005.0 | |
| 20260506160234 | 93 | 0.0 | 0.0 | 0.00 | 0.00 | 0.00 | 51 | 1005.3 | |
| 20260506155229 | 93 | 0.0 | 0.0 | 0.00 | 0.00 | 0.00 | 51 | 1005.4 | |
| 20260506154226 | 93 | 0.0 | 0.0 | 0.00 | 0.00 | 0.00 | 47 | 1005.5 | |
| 20260506152217 | 93 | 0.0 | 0.0 | 0.00 | 0.00 | 0.00 | 47 | 1005.6 |